Flag for India Weather past 2 weeks in Tarn Taran Sahib, Punjab, India

Now
50 °F

Passing clouds.


Feels Like: 50 °F
Forecast: 55 / 67 °F
Wind: No wind

Location: Lahore Airport

Current Time: Feb 28, 2015 at 7:07:23 AM

Latest Report: Feb 28, 2015 at 6:30 AM


Visibility: 2 mi

Pressure: 30.01 "Hg

Humidity: 82%

Dew point: 45 °F

Location of Tarn Taran SahibLocation

Historic Weather in Tarn Taran Sahib — Graph

°F

Tarn Taran Sahib temperature yesterday

Maximum temperature yesterday: 73 °F (at 1:25 PM)
Minimum temperature yesterday: 48 °F (at 6:55 AM)
Average temperature yesterday: 62 °F

Past Weeks' High & Low Weather Summary

 TemperatureHumidityPressure
High82 °F (Feb 15, 2:55 PM)100% (Feb 16, 6:00 PM)30.09 "Hg (Feb 16, 6:00 PM)
Low48 °F (Feb 27, 6:55 AM)25% (Feb 26, 3:25 PM)29.68 "Hg (Feb 25, 5:25 AM)
Average65 °F67%29.92 "Hg
* Reported Feb 13 5:00 AM — Feb 28 5:29 AM, Tarn Taran Sahib, Weather by CustomWeather, © 2015

Note: Actual official high and low records may vary slightly from our data, if they occured in-between our weather recording intervals... More about our weather records

Advertising

Tarn Taran Sahib weather history for previous 24 hours

 ConditionsComfort  
Time TempWeatherWind HumidityBarometerVisibility
5:29 AM
Sat, Feb 28
52 °FClear.5 mph77%29.98 "Hg2 mi
4:55 AM54 °FClear.3 mph72%29.98 "Hg2 mi
4:25 AM55 °FClear.No wind72%29.98 "Hg2 mi
3:55 AM55 °FClear.No wind72%29.98 "Hg2 mi
3:25 AM55 °FClear.No wind72%30.01 "Hg2 mi
2:55 AM55 °FClear.No wind77%30.01 "Hg2 mi
2:25 AM57 °FClear.No wind77%30.01 "Hg2 mi
1:55 AM57 °FClear.No wind72%30.01 "Hg2 mi
1:25 AM59 °FClear.No wind68%30.01 "Hg2 mi
12:55 AM61 °FPassing clouds.No wind63%30.01 "Hg2 mi
12:25 AM61 °FPassing clouds.No wind63%30.01 "Hg2 mi
11:55 PM
Fri, Feb 27
61 °FPassing clouds.No wind63%30.01 "Hg2 mi
11:25 PM61 °FPassing clouds.3 mph63%30.01 "Hg2 mi
10:55 PM63 °FPassing clouds.No wind59%30.01 "Hg2 mi
10:25 PM63 °FPassing clouds.2 mph59%30.01 "Hg2 mi
9:55 PM63 °FPassing clouds.No wind56%30.01 "Hg2 mi
9:25 PM63 °FPassing clouds.3 mph56%30.01 "Hg2 mi
8:55 PM63 °FPassing clouds.3 mph52%29.98 "Hg3 mi
8:25 PM63 °FPassing clouds.5 mph52%29.98 "Hg3 mi
7:55 PM64 °FPassing clouds.No wind46%29.98 "Hg3 mi
7:25 PM64 °FPassing clouds.3 mph46%29.98 "Hg3 mi
6:55 PM66 °FPassing clouds.5 mph43%29.95 "Hg3 mi
6:25 PM66 °FScattered clouds.5 mph43%29.95 "Hg3 mi
5:55 PM66 °FScattered clouds.3 mph43%29.95 "Hg3 mi
5:25 PM66 °FScattered clouds.7 mph43%29.95 "Hg3 mi
4:55 PM66 °FScattered clouds.7 mph43%29.95 "Hg3 mi
4:25 PM70 °FScattered clouds.7 mph35%29.95 "Hg3 mi
3:55 PM70 °FScattered clouds.7 mph35%29.95 "Hg3 mi
3:25 PM70 °FScattered clouds.7 mph35%29.95 "Hg3 mi
2:55 PM72 °FScattered clouds.7 mph29%29.95 "Hg4 mi
2:25 PM72 °FScattered clouds.8 mph29%29.98 "Hg4 mi
1:55 PM73 °FScattered clouds.7 mph27%29.98 "Hg5 mi
1:25 PM73 °FScattered clouds.5 mph27%29.98 "Hg5 mi
12:55 PM72 °FPassing clouds.3 mph33%30.01 "Hg4 mi
12:25 PM70 °FPassing clouds.3 mph35%30.01 "Hg4 mi
11:55 AM70 °FHaze.3 mph40%30.01 "Hg4 mi
11:25 AM68 °FHaze.3 mph43%30.01 "Hg3 mi
10:55 AM64 °FClear.3 mph52%30.01 "Hg2 mi
10:25 AM63 °FClear.3 mph56%30.01 "Hg2 mi
9:55 AM59 °FClear.3 mph68%29.98 "Hg2 mi
9:25 AM57 °FClear.No wind72%29.98 "Hg2 mi
8:55 AM52 °FFog.No wind82%29.98 "Hg1 mi
8:25 AM48 °FFog.No wind87%29.95 "Hg1 mi
7:55 AM48 °FFog.No wind87%29.95 "Hg1 mi
7:25 AM48 °FFog.No wind87%29.92 "Hg1 mi
Weather by CustomWeather, © 2015

See weather overviewHow to use our weather pages